SCP
1 1 1 1 1 2 2 2 2 2 2 2 2 2 2 2 1 1 1 1 1 1 1 1 1 1 1 1 1 1 1 1 1 0 0 0 0 0 0 0 0 0 1
1 1 1 1 1 1 2 2 2 2 2 2 2 2 1 1 1 1 1 1 1 1 1 1 1 1 1 1 1 1 1 1 1 1 0 0 0 0 0 0 0 0 0
1 1 1 1 1 1 1 1 1 2 1 1 1 1 1 1 1 1 1 1 0 0 1 1 1 1 1 1 1 1 1 1 1 1 1 0 0 0 0 0 0 0 0
0 0 0 0 0 1 1 1 1 1 1 1 1 1 1 1 1 1 1 0 0 0 0 0 1 1 1 1 1 1 1 1 0 1 1 1 1 1 0 0 0 0 0
0 0 0 0 0 0 0 1 1 1 1 1 1 1 1 1 1 0 0 0 0 0 0 0 0 0 0 0 0 0 0 0 0 1 1 1 1 1 0 0 0 0 0
0 0 0 0 0 0 0 1 1 1 1 1 1 1 1 1 0 0 0 0 0 0 0 0 0 0 0 0 0 0 0 0 0 0 1 1 1 1 0 0 0 0 0
0 0 0 0 0 0 0 1 1 1 1 1 1 1 1 1 0 0 0 0 0 0 0 0 0 0 0 0 0 0 0 0 0 0 0 0 1 1 1 0 0 0 0
0 0 0 0 0 0 0 0 1 1 1 1 1 1 1 1 0 0 0 0 0 0 0 0 0 0 0 0 0 0 0 0 0 0 0 0 0 0 1 1 0 0 0
0 0 0 0 0 0 0 0 1 1 1 1 1 1 1 1 0 0 0 0 0 0 0 0 0 0 0 0 0 0 0 0 0 0 0 0 0 0 0 1 1 1 0
0 0 0 0 0 0 0 0 1 1 1 1 1 1 1 1 1 0 0 0 0 0 0 0 0 0 0 0 0 0 0 0 0 0 0 0 0 0 0 0 1 1 1
0 0 0 0 0 0 0 0 0 0 1 1 0 0 0 1 1 0 0 0 0 0 0 0 0 0 0 0 0 0 0 0 0 0 0 0 0 0 0 0 0 1 1
0 0 0 0 0 0 0 0 0 0 0 0 0 0 0 0 0 0 0 0 0 0 0 0 0 0 0 0 0 0 0 0 0 0 0 0 0 0 0 0 0 0 0
0 0 0 0 0 0 0 0 0 0 0 0 0 0 0 0 0 0 0 0 0 0 0 0 0 0 0 0 0 0 0 0 0 0 0 0 0 0 0 0 0 0 0
0 0 0 0 0 0 0 0 0 0 0 0 0 0 0 0 0 0 0 0 0 0 0 0 0 0 0 0 0 0 0 0 0 0 0 0 0 0 0 0 0 0 0
0 0 0 0 0 0 0 0 0 0 0 0 0 0 0 0 0 0 0 0 0 0 0 0 0 0 0 0 0 0 0 0 0 0 0 0 0 0 0 0 0 0 0
0 0 0 0 0 0 0 0 0 0 0 0 0 0 0 0 0 0 0 0 0 0 0 0 0 0 0 0 0 0 0 0 0 0 0 0 0 0 0 0 0 0 0
0 0 0 0 0 0 0 0 0 0 0 0 0 0 0 0 0 0 0 0 0 0 0 0 0 0 0 0 0 0 0 0 0 0 0 0 0 0 0 0 0 0 0
0 0 0 0 0 0 0 0 0 0 0 0 0 0 0 0 0 0 0 0 0 0 0 0 0 0 0 0 0 0 0 0 0 0 0 0 0 0 0 0 0 0 0
0 0 0 0 0 0 0 0 0 0 0 0 0 0 0 0 0 0 0 0 0 0 0 0 0 0 0 0 0 0 0 0 0 0 0 0 0 0 0 0 0 0 0
0 0 0 0 0 0 0 0 0 0 0 0 0 0 0 0 0 0 0 0 0 0 0 0 0 0 0 0 0 0 0 0 0 0 0 0 0 0 0 0 0 0 0
0 0 0 0 0 0 0 0 0 0 0 0 0 0 0 0 0 0 0 0 0 0 0 0 0 0 0 0 0 0 0 0 0 0 0 0 0 0 0 0 0 0 0
0 0 0 0 0 0 0 0 0 0 0 0 0 0 0 0 0 0 0 0 0 0 0 0 0 0 0 0 0 0 0 0 0 0 0 0 0 0 0 0 0 0 0
0 0 0 0 0 0 0 0 0 0 0 0 0 0 0 0 0 0 0 0 0 0 0 0 0 0 0 0 0 0 0 0 0 0 0 0 0 0 0 0 0 0 0
0 0 0 0 0 0 0 0 0 0 0 0 0 0 0 0 0 0 0 0 0 0 0 0 0 0 0 0 0 0 0 0 0 0 0 0 0 0 0 0 0 0 0
0 0 0 0 0 0 0 0 0 0 0 0 0 0 0 0 0 0 0 0 0 0 0 0 0 0 0 0 0 0 0 0 0 0 0 0 0 0 0 0 0 0 0
0 0 0 0 0 0 0 0 0 0 0 0 0 0 0 0 0 0 0 0 0 0 0 0 0 0 0 0 0 0 0 0 0 0 0 0 0 0 0 0 0 0 0
Wind_Speed
8 7 7 7 7 7 6 5 5 4 3 2 2 2 2 2 2 1 2 3 3 3 3 3 3 3 3 4 5 4 5 5 3 3 4 5 6 6 5 5 5 6 7
7 6 6 5 6 5 4 4 4 4 3 2 2 1 2 2 2 1 1 2 3 3 3 2 3 3 3 4 4 4 3 4 4 4 3 3 3 4 7 5 5 5 4
6 6 5 4 4 4 3 3 3 3 3 3 2 2 2 2 2 2 1 1 2 2 3 3 2 3 2 2 3 4 4 4 4 4 4 3 3 2 3 5 5 5 4
6 5 4 4 3 2 3 2 2 2 2 2 3 4 4 4 3 2 2 2 2 3 3 2 2 2 2 2 3 2 3 4 4 3 3 3 0 1 1 2 4 5 5
5 4 3 2 1 1 1 1 2 1 1 2 3 4 4 4 4 4 4 4 3 3 3 2 2 1 2 2 2 2 2 3 4 3 3 4 3 3 2 3 2 3 4
3 2 1 1 0 2 1 0 0 0 2 3 4 4 5 6 6 6 6 5 4 3 3 2 1 1 1 2 2 2 3 3 4 4 3 3 3 3 3 4 4 4 4
2 2 2 1 1 2 2 2 2 2 3 4 4 5 5 6 7 8 6 5 4 3 3 3 2 2 2 2 3 3 3 4 5 5 4 4 4 3 3 4 4 4 3
3 3 3 3 4 4 3 4 3 3 3 4 5 5 6 6 5 6 6 6 5 5 4 3 3 3 3 4 3 3 4 3 3 6 5 4 5 3 4 4 3 3 3
4 5 6 6 6 6 5 4 4 4 4 5 6 6 6 6 6 7 7 6 6 7 5 4 4 5 5 4 4 4 4 4 4 4 5 4 4 4 4 4 4 4 4
7 7 6 6 5 5 5 5 5 5 5 5 6 8 6 6 7 7 7 7 7 8 7 7 7 6 6 6 5 5 5 6 5 4 5 4 4 4 5 5 4 4 3
10 10 9 9 8 8 8 7 7 6 6 6 6 7 7 7 7 6 7 7 7 7 7 7 7 7 7 7 7 7 7 7 6 6 6 6 5 4 4 4 4 4 3
10 10 10 10 10 9 9 9 8 8 8 7 7 7 7 7 7 8 8 8 8 8 8 8 8 8 8 7 8 8 8 7 7 7 6 6 5 6 4 4 5 4 4
10 10 9 9 10 10 10 10 9 10 10 9 9 9 8 8 8 9 8 8 9 8 9 9 9 8 8 8 8 8 8 8 7 7 7 7 6 6 4 4 5 4 4
10 10 9 8 9 9 9 10 10 10 10 10 10 9 9 9 10 10 9 9 9 9 9 9 9 9 9 9 8 8 7 8 7 7 7 6 6 6 6 5 4 4 3
12 11 10 9 9 9 9 9 10 10 10 10 11 9 9 10 10 10 10 10 9 11 9 9 9 8 9 10 9 7 9 7 7 7 7 7 7 7 6 5 5 4 3
13 13 12 11 11 10 10 10 10 10 10 11 11 10 10 11 10 11 10 10 9 10 10 10 10 10 11 11 9 7 7 6 7 7 6 7 7 9 9 9 8 6 5
13 13 13 11 10 10 9 10 11 11 11 11 12 11 11 12 11 13 12 11 10 10 10 10 10 10 10 11 10 8 7 8 7 7 6 8 9 9 8 9 11 10 10
13 13 12 12 11 11 10 11 12 11 11 11 12 12 12 13 12 12 12 11 10 10 9 10 10 9 11 12 11 10 9 9 8 8 7 7 7 7 6 6 7 8 8
12 11 12 12 11 11 12 12 13 13 13 12 12 13 13 13 13 13 12 10 10 10 9 9 10 10 10 11 11 11 7 7 9 8 8 8 8 10 9 6 6 6 6
11 11 12 12 11 11 11 12 13 13 13 13 13 13 13 13 13 13 11 10 9 9 9 9 9 9 9 9 11 12 6 7 7 7 8 11 10 10 11 7 6 6 6
11 12 12 11 10 10 10 12 13 13 14 14 13 13 13 12 12 10 9 9 9 9 9 9 8 8 8 8 11 13 7 7 6 6 6 6 11 12 12 9 6 6 4
12 12 11 10 9 10 11 13 13 13 14 14 14 14 13 12 11 10 9 9 8 8 8 7 7 5 4 5 8 12 12 8 5 5 4 3 7 11 12 9 6 7 4
11 11 12 11 10 10 10 13 13 13 14 14 14 13 13 11 10 10 10 8 7 6 6 5 5 4 3 2 6 9 11 11 6 3 3 3 6 8 8 9 9 7 5
11 11 12 12 12 11 11 11 11 12 13 14 14 12 11 11 10 7 7 7 6 5 5 5 4 3 2 1 2 3 5 7 7 6 5 6 7 6 5 6 6 6 6
10 10 10 11 12 11 11 12 11 12 13 14 13 12 10 9 9 8 6 6 4 3 5 5 5 4 3 2 1 1 2 2 3 4 4 5 5 6 6 6 7 7 7
10 10 11 12 12 11 11 11 11 12 13 12 11 9 9 8 7 7 7 5 5 5 5 5 5 3 2 2 1 0 1 1 2 3 4 5 6 6 7 7 7 7 7
Wind_Direction
93 84 75 71 73 68 67 64 63 56 42 32 355 341 343 340 333 320 345 328 305 299 286 291 289 260 250 252 248 237 232 223 215 234 255 253 232 220 211 208 220 221 210
113 103 98 87 84 83 78 80 64 49 29 24 330 298 301 284 270 298 329 313 308 300 290 304 297 276 255 248 250 235 237 237 212 208 219 234 228 223 213 197 203 220 214
120 117 109 99 91 85 72 62 60 53 27 357 333 336 321 305 311 317 296 306 310 302 287 294 291 291 280 262 258 234 230 239 232 220 219 220 218 199 206 207 204 195 201
121 113 106 98 87 87 93 97 90 68 24 345 338 326 311 306 305 306 310 313 291 286 285 283 290 302 304 300 287 282 251 244 245 239 238 246 310 200 236 233 210 196 200
111 101 92 85 63 49 92 109 97 71 345 316 309 309 312 316 318 318 305 296 281 265 256 240 250 269 279 298 317 325 299 263 260 256 245 239 228 224 216 241 225 212 200
97 84 80 112 289 295 289 64 122 274 282 290 301 304 309 310 308 301 293 286 275 263 260 258 242 257 264 289 297 293 286 281 273 268 257 246 222 213 218 225 222 215 214
85 45 341 303 295 304 340 339 324 303 296 296 297 300 303 301 289 282 285 289 291 291 286 289 278 275 266 260 263 265 262 268 278 276 265 263 253 233 236 238 233 221 212
44 10 334 336 334 337 345 331 324 311 302 296 294 291 286 283 285 295 308 302 292 286 278 271 267 263 264 267 254 263 266 262 262 271 273 268 266 250 243 241 241 238 221
5 352 349 349 348 344 341 325 315 312 303 297 293 280 273 280 288 290 286 284 283 287 288 286 277 266 257 254 252 247 252 253 249 255 267 269 271 262 255 251 239 228 219
357 356 353 352 351 345 341 338 331 322 312 305 298 302 302 294 283 281 277 275 277 280 278 270 264 260 257 253 247 249 247 243 239 234 242 252 264 271 260 255 245 228 217
356 354 356 359 354 347 340 338 334 329 324 317 311 306 301 295 293 288 285 283 280 276 273 270 268 264 256 250 245 245 248 245 244 242 237 235 234 256 270 270 264 248 223
353 353 353 353 347 342 339 337 335 328 324 320 313 305 301 302 302 300 297 296 291 284 278 270 265 262 261 252 245 244 247 244 241 238 236 237 234 231 249 257 260 261 246
356 354 357 351 344 341 338 333 329 326 324 323 317 313 311 308 302 297 294 290 287 286 283 274 268 267 265 261 256 251 247 245 245 242 235 232 226 226 229 240 242 243 254
359 355 356 349 346 340 336 330 327 327 324 321 318 315 313 308 303 299 294 288 285 283 279 277 271 265 263 260 255 251 247 245 245 243 237 232 223 221 216 227 228 227 236
353 352 350 345 340 337 332 328 327 327 325 322 319 314 312 308 304 300 296 291 287 285 282 279 276 270 264 258 252 247 250 243 242 241 236 234 225 222 214 222 215 214 214
349 347 344 341 338 333 330 331 328 329 327 321 316 312 309 307 305 302 298 294 289 286 281 276 274 269 266 264 262 258 257 252 242 240 239 238 227 219 212 212 212 208 208
347 344 342 336 333 332 334 332 329 327 322 318 315 315 313 312 309 307 304 299 295 291 286 281 275 271 264 258 252 251 259 254 241 234 228 242 236 215 210 210 212 216 218
346 342 336 333 333 335 335 332 326 323 319 318 317 317 315 313 309 303 298 297 295 289 284 280 277 274 267 252 237 232 241 252 244 231 221 226 241 238 217 212 214 212 212
345 338 334 333 335 335 337 330 324 324 321 321 321 318 315 310 307 303 300 298 294 290 283 280 275 270 263 244 229 220 232 241 244 234 228 221 228 229 217 215 220 218 217
343 338 337 336 336 337 335 329 326 325 324 323 319 316 313 309 306 301 301 298 292 288 287 282 277 272 262 238 219 212 224 235 239 232 230 229 226 224 211 211 216 223 221
341 342 341 337 335 335 335 328 325 325 325 321 317 315 312 308 302 304 304 300 296 293 288 285 281 273 259 235 213 206 214 226 235 237 226 223 216 210 205 206 209 216 221
342 342 337 335 334 336 335 329 326 326 323 319 316 314 312 311 313 311 307 304 300 297 294 292 291 281 259 230 213 206 214 228 233 245 249 223 204 198 197 200 203 195 205
340 338 335 332 334 337 337 329 326 325 323 319 317 315 313 314 311 309 309 308 305 304 305 301 298 299 293 225 207 210 218 226 233 253 257 212 183 185 196 208 197 191 206
337 337 334 332 333 337 336 329 324 326 324 320 318 316 315 318 317 313 310 311 315 317 315 314 312 311 309 288 204 205 213 220 227 237 226 198 184 197 208 188 192 208 216
335 335 333 330 333 337 334 333 333 330 325 322 320 317 317 316 315 314 311 311 316 310 301 311 318 322 327 359 340 263 226 223 219 220 210 205 195 204 210 206 200 204 208
333 334 334 334 335 335 335 336 336 333 327 323 322 320 318 317 316 316 317 299 283 272 261 267 287 304 310 300 274 233 184 219 243 226 222 219 216 215 213 210 208 204 206